Lapse_Rate
8.4 8.7 8.8 9.0 8.9 9.1 9.1 9.0 9.1 9.3 9.5 9.4 9.2 9.1 8.5 8.2 7.1 7.0 7.0 6.8 6.8 6.8 6.5 7.0 7.2 6.8 7.2 7.9 7.9 8.6 8.1 8.2 9.2 8.7 9.0 7.8 8.7 8.0 8.3 8.2 8.0 8.1 8.9
8.2 8.4 8.7 8.9 8.9 8.8 8.1 8.3 8.6 9.2 9.3 8.8 8.9 8.8 8.4 7.7 6.8 6.6 6.6 6.5 6.2 6.0 6.4 6.1 6.6 6.6 6.8 7.4 7.3 7.7 7.3 8.4 8.6 8.8 8.2 8.0 8.7 8.6 8.0 8.9 9.6 8.6 9.2
7.9 8.2 8.5 8.6 8.7 6.6 5.8 5.4 5.8 6.4 6.7 6.9 7.0 7.1 7.6 8.4 7.8 7.3 6.5 6.0 5.8 5.5 5.6 5.8 6.3 6.6 7.0 7.0 7.1 7.9 8.0 8.3 8.7 8.8 8.7 7.7 7.4 8.4 9.1 9.0 9.0 8.3 8.2
8.1 8.2 8.3 8.4 7.9 5.7 5.7 5.8 6.0 6.4 7.5 8.5 8.6 8.8 8.1 6.6 6.7 6.8 6.7 6.8 5.6 5.1 5.1 5.6 6.0 6.4 7.0 6.8 6.9 7.9 7.6 8.2 8.5 8.8 9.2 9.1 9.0 7.9 7.6 8.7 8.9 9.3 9.4
8.0 8.1 8.3 8.3 7.2 5.9 5.6 5.8 5.8 6.0 6.5 6.9 7.1 6.9 6.6 6.6 6.9 7.1 7.1 6.9 6.7 5.7 4.9 5.8 6.2 6.4 6.5 6.4 6.5 6.7 7.1 7.6 8.7 8.7 8.8 9.1 9.0 9.1 8.2 7.6 8.3 9.2 9.5
8.1 8.3 8.5 8.3 6.4 5.8 5.7 5.9 5.9 5.8 6.0 6.1 6.3 6.2 6.4 6.9 6.6 6.2 6.6 6.8 7.0 6.2 5.3 5.7 6.3 6.6 6.2 6.1 6.4 6.8 7.2 7.7 8.8 8.8 9.1 9.1 8.8 8.7 8.6 8.3 8.3 8.4 9.1
8.1 8.1 8.2 8.3 7.7 6.4 5.9 6.1 5.9 5.5 5.8 5.6 5.6 5.4 5.3 5.6 5.5 5.9 5.9 5.9 6.2 5.7 5.3 5.6 6.1 6.5 6.6 6.7 6.9 7.1 7.5 8.6 8.9 8.7 9.0 9.2 9.3 9.4 9.2 8.9 8.4 8.3 8.9
8.1 8.1 8.3 8.4 8.4 7.2 6.7 6.3 5.9 5.5 5.6 5.3 5.1 5.3 5.5 5.6 5.6 5.3 5.4 5.7 5.6 5.8 5.8 5.9 6.4 7.0 7.2 7.4 7.8 7.8 8.9 9.2 8.7 8.7 8.9 9.2 9.6 9.6 9.5 9.0 8.4 8.0 8.3
7.9 8.1 8.3 8.5 8.5 7.8 7.5 6.5 5.8 5.3 5.3 5.4 5.6 5.7 5.6 5.3 5.2 5.4 5.5 5.4 6.0 6.2 6.3 6.6 6.8 7.2 7.5 7.8 8.1 8.7 8.7 9.2 9.0 9.0 9.1 9.3 9.5 9.6 9.4 9.4 9.1 8.4 7.5
7.9 8.1 8.3 8.5 8.7 8.5 6.6 6.3 6.2 5.6 5.5 5.7 5.8 5.7 5.6 5.5 5.6 5.7 5.4 5.6 6.2 6.3 6.4 6.9 7.0 7.2 7.5 8.1 9.0 8.9 9.2 9.4 9.4 9.6 9.4 9.3 9.6 9.5 9.5 9.5 9.3 9.1 8.6
7.9 8.1 8.4 8.6 8.7 7.6 6.0 6.1 5.8 5.6 5.6 5.8 6.0 5.8 5.5 5.4 5.8 5.9 6.0 6.1 6.5 6.6 6.7 6.9 6.8 7.0 7.6 8.8 9.0 9.1 9.4 9.4 9.4 9.5 9.4 9.3 9.5 9.4 9.4 9.4 9.3 9.2 9.1
8.0 8.2 8.4 8.5 8.5 7.7 7.1 6.5 6.6 6.6 5.9 5.8 6.0 5.6 5.5 5.8 6.0 6.2 6.2 6.6 6.6 6.8 6.9 6.9 7.0 7.5 8.3 8.6 9.0 9.3 9.5 9.4 9.4 9.5 9.4 9.4 10.0 9.1 9.4 9.5 9.3 9.2 9.3
7.9 8.2 8.3 8.3 8.4 8.5 7.8 7.6 7.7 7.0 5.9 5.9 6.0 6.0 5.8 6.0 6.1 6.3 6.5 6.6 6.6 6.7 6.9 7.2 7.4 7.7 8.2 8.9 9.2 9.6 9.4 9.4 9.6 9.6 9.5 9.5 9.4 9.1 9.3 9.3 9.3 9.3 9.7
7.8 8.0 8.1 8.3 8.5 8.6 8.7 8.5 8.0 6.8 5.7 5.7 5.9 5.9 5.7 5.4 5.9 6.2 6.3 6.5 6.6 6.5 6.8 7.1 7.4 8.2 9.3 9.4 9.6 9.2 8.8 9.4 9.7 9.8 9.6 9.7 9.5 9.3 9.0 9.3 9.1 9.4 8.8
7.7 7.9 8.0 8.3 8.5 8.6 8.7 8.7 8.2 6.4 5.9 5.9 5.9 5.2 5.0 5.7 6.1 6.3 6.6 6.7 6.6 6.8 7.1 7.7 8.5 9.4 9.3 9.8 9.2 8.9 9.2 9.3 9.6 9.8 9.8 9.8 9.5 9.5 9.5 9.5 9.2 8.9 8.6
7.6 7.9 8.1 8.3 8.4 8.5 8.7 8.4 7.1 6.0 6.0 5.9 5.4 5.1 5.6 6.1 6.4 6.5 6.5 6.5 6.6 7.2 8.2 8.9 9.2 9.0 9.6 9.5 9.6 9.6 9.5 9.8 9.7 9.5 9.7 9.8 9.6 9.6 9.6 9.5 9.5 9.3 8.7
7.7 7.9 8.1 8.3 8.5 8.6 8.7 8.0 7.1 6.0 6.0 5.8 5.7 5.7 5.9 6.1 6.4 6.5 6.6 7.0 7.8 8.7 9.0 9.3 9.4 9.4 9.5 9.6 9.6 9.6 9.7 9.6 9.6 9.6 9.5 9.7 10.2 9.4 9.2 9.3 9.4 9.0 9.1
7.8 8.0 8.3 8.4 8.6 8.8 8.7 8.5 6.6 6.3 6.1 6.0 6.0 6.2 6.3 6.3 6.4 6.7 7.1 7.9 8.8 8.9 8.9 8.9 9.4 9.5 9.8 9.6 9.6 9.7 9.7 9.7 9.7 9.6 9.5 9.5 9.4 9.2 9.1 9.4 7.6 7.6 8.7
8.2 8.3 8.6 8.5 8.2 7.5 7.6 6.6 6.6 6.3 6.2 6.3 6.3 6.5 6.4 6.2 6.5 6.7 7.3 7.7 8.4 8.4 8.5 9.1 9.4 9.5 9.6 9.6 9.6 9.6 9.6 9.7 9.6 9.8 9.7 9.5 9.4 9.5 9.0 8.2 7.9 9.0 9.0
6.1 6.5 7.0 6.6 6.8 7.7 7.0 7.0 7.1 6.8 6.1 5.5 5.8 6.1 6.1 6.2 6.5 6.9 7.2 7.8 8.3 8.3 9.2 9.4 9.7 9.5 9.5 9.6 9.6 9.6 9.6 9.4 9.4 9.6 9.5 9.4 9.4 9.2 9.1 8.9 9.0 8.4 8.6
5.0 5.0 5.7 6.9 8.0 6.9 7.1 8.1 6.3 6.0 5.3 5.2 5.7 6.1 6.5 6.8 7.0 6.9 7.2 7.1 7.8 8.5 9.4 9.4 9.6 9.6 9.6 9.6 9.6 9.6 9.5 9.4 9.2 8.7 9.3 9.6 9.4 9.1 9.4 9.4 9.2 8.9 9.1
4.4 5.7 6.7 7.2 6.9 6.8 7.3 6.3 6.0 5.4 5.2 5.5 5.8 6.4 6.8 7.2 7.1 6.8 6.7 7.3 8.7 9.2 9.2 9.2 9.2 9.6 9.6 9.6 9.6 9.6 9.5 9.4 9.1 9.2 9.5 9.1 9.0 9.4 9.5 9.3 9.4 9.4 9.2
5.0 6.2 7.0 6.3 6.4 6.7 6.9 6.1 5.6 5.4 5.6 6.0 6.4 7.0 7.0 7.2 7.4 7.0 7.7 8.7 9.2 9.1 9.1 9.3 9.2 9.3 9.7 9.8 9.6 9.6 9.5 9.4 9.4 9.5 9.1 9.1 9.4 9.5 9.3 9.5 9.4 9.4 8.8
5.8 6.2 6.5 6.7 6.4 5.7 5.2 5.9 5.4 5.3 5.5 6.1 7.0 7.1 6.8 6.8 7.2 8.8 9.1 9.2 9.2 9.2 9.2 9.1 9.2 9.2 9.3 9.5 9.6 9.6 9.3 9.4 9.2 8.8 8.7 9.3 9.4 9.4 9.3 9.3 9.3 9.0 8.9
5.9 6.0 6.8 7.6 7.0 5.5 5.8 5.6 5.4 5.5 5.9 6.7 6.7 6.7 7.3 7.5 8.2 9.0 9.2 9.3 9.4 9.4 9.1 9.2 9.2 8.9 8.9 9.2 9.3 9.2 9.3 9.1 8.8 9.1 9.2 9.2 9.1 8.8 9.0 8.9 8.9 8.9 8.9
6.0 6.1 6.8 6.5 6.5 6.3 6.3 6.0 5.7 5.6 5.9 5.8 6.4 7.0 7.3 8.4 9.0 9.0 8.8 9.4 9.5 9.6 9.6 9.6 9.4 9.5 9.4 9.4 9.4 9.4 9.4 9.2 9.4 9.2 9.0 8.7 8.6 8.6 8.7 8.7 8.7 8.6 8.5
Wind_Speed
7 7 8 9 10 11 12 12 11 11 9 8 8 8 8 8 8 8 12 12 13 12 10 7 8 8 7 8 10 8 10 8 9 8 9 10 9 13 9 11 12 13 13
11 10 10 10 11 12 13 13 12 11 10 8 8 8 8 8 8 7 9 12 12 14 10 10 8 9 7 9 9 9 8 7 8 9 10 7 8 8 12 11 10 15 10
13 13 12 11 11 12 12 12 12 12 11 12 9 8 8 6 7 6 6 8 12 13 12 10 8 8 7 6 8 8 9 7 7 10 7 6 7 12 9 12 9 15 13
14 12 13 12 12 11 11 13 13 12 10 10 9 10 8 7 6 5 5 5 10 10 12 11 9 8 6 7 7 7 7 8 7 7 8 10 12 12 12 5 12 10 13
15 14 13 12 12 10 10 11 12 12 11 10 10 8 9 7 5 4 5 5 6 8 11 10 8 7 6 7 8 8 9 7 8 7 8 9 9 11 12 16 11 10 10
15 14 12 12 11 10 10 9 12 11 11 11 11 10 9 7 5 5 4 4 4 5 7 9 7 7 7 8 7 8 9 8 8 8 8 9 10 10 11 13 15 15 12
16 15 14 12 11 11 10 10 10 11 10 10 10 10 9 7 7 5 5 6 5 5 7 8 8 7 7 8 8 8 9 9 8 10 8 9 10 9 10 12 14 14 13
15 15 14 12 12 11 10 10 10 10 9 9 9 8 7 5 5 6 5 5 5 6 8 8 8 9 9 9 8 7 7 9 8 12 10 9 9 9 10 11 12 16 15
16 16 14 12 11 11 10 10 10 9 8 7 7 7 6 7 5 6 5 5 5 5 7 8 8 9 9 10 10 8 10 10 10 11 11 10 9 10 10 10 10 12 16
16 15 13 12 11 11 10 9 8 8 7 6 5 5 6 5 5 5 5 5 5 6 7 8 9 10 10 11 11 10 10 12 9 9 12 12 10 11 10 11 10 10 12
16 15 13 12 11 10 9 9 8 8 6 5 5 5 5 4 4 5 5 6 6 6 7 8 10 11 12 13 12 12 13 12 13 13 13 14 14 11 10 11 11 11 11
16 15 14 13 11 10 9 8 8 7 6 4 4 4 4 4 5 5 5 6 7 7 8 9 10 12 13 13 13 13 13 14 15 15 15 15 11 15 12 10 13 12 14
16 14 14 12 12 11 9 8 7 7 6 4 3 3 3 4 5 6 6 7 7 8 9 10 11 13 12 13 13 14 13 15 15 15 15 15 15 14 12 12 13 13 12
16 14 13 12 11 10 9 8 7 7 5 4 3 3 4 4 5 5 6 7 8 9 10 11 12 12 13 13 14 13 14 15 15 16 15 15 14 14 14 14 14 13 14
16 14 13 12 11 10 9 8 7 7 5 4 2 3 3 4 5 6 7 8 8 9 11 12 12 12 12 10 12 13 15 16 17 16 15 13 16 24 21 12 13 15 14
14 13 13 12 11 11 9 8 8 6 5 3 2 1 3 4 5 6 7 9 10 11 12 12 13 12 10 20 21 18 14 16 16 15 14 14 19 17 24 25 30 25 17
12 12 12 11 10 10 9 9 8 7 5 3 1 2 3 4 6 7 8 9 11 11 12 13 13 13 14 21 22 22 13 15 14 15 14 14 11 18 15 23 28 21 24
8 8 8 9 9 9 9 8 8 6 4 2 0 2 3 5 7 8 9 11 11 12 12 13 13 13 12 21 22 21 14 14 15 15 15 15 16 16 20 18 16 15 17
6 7 8 9 10 10 9 9 7 5 3 1 1 3 4 6 7 9 11 11 11 11 11 12 14 14 13 21 20 18 14 13 15 14 14 17 17 24 29 18 18 20 19
8 9 10 10 10 10 9 8 6 4 2 1 2 3 5 6 8 10 11 11 11 12 11 13 13 17 13 18 19 18 10 13 12 14 15 23 23 28 30 21 19 18 16
10 10 10 9 9 9 8 6 5 3 2 1 3 4 5 7 9 10 11 11 12 12 12 13 12 13 13 13 20 21 12 11 12 12 13 12 27 29 33 31 16 17 21
10 9 9 8 8 7 6 6 4 4 1 2 4 6 7 7 7 9 9 11 11 12 12 12 11 9 11 17 18 22 23 24 14 15 13 14 28 32 31 22 28 31 24
8 7 8 9 7 6 5 5 4 2 1 3 5 7 8 8 8 9 10 9 10 10 10 9 9 9 8 10 20 23 26 26 17 13 22 28 31 28 19 26 28 26 11
7 7 9 8 8 6 5 4 3 2 2 5 6 7 8 9 10 8 7 8 9 9 9 9 10 10 10 10 10 11 12 20 16 20 14 21 22 22 22 16 14 10 11
7 7 7 7 8 6 5 4 2 1 4 5 6 7 7 9 9 9 8 8 10 10 9 10 10 11 11 11 22 21 15 14 18 22 11 10 11 11 11 11 12 11 11
6 6 6 6 7 5 4 2 1 2 4 5 6 6 7 7 8 8 9 13 17 18 18 20 15 11 19 26 27 29 30 30 30 12 10 11 11 11 12 12 13 12 15
Wind_Direction
126 107 102 100 96 87 87 88 100 112 116 116 109 106 104 97 84 72 62 53 43 36 31 20 16 9 2 358 352 348 341 334 344 319 323 304 296 323 349 337 326 317 319
145 126 117 103 91 91 89 86 86 87 89 95 93 98 96 89 87 78 63 56 45 36 30 19 9 7 353 1 357 356 346 341 341 338 315 333 312 351 329 309 314 302 322
152 141 128 115 103 94 93 93 91 96 98 106 107 105 107 100 85 68 64 45 45 34 27 19 7 6 360 4 356 357 349 338 338 348 326 329 321 317 310 313 302 333 315
154 140 134 121 109 102 96 96 94 94 91 89 88 87 92 91 78 73 55 58 44 37 21 14 10 8 359 5 351 355 342 341 333 332 335 312 311 314 314 302 307 308 319
155 149 136 126 114 110 104 101 98 93 88 88 95 99 100 96 82 71 56 49 44 34 22 10 8 8 5 0 349 344 342 335 331 328 322 315 312 316 309 310 310 299 299
159 148 139 133 122 119 112 106 104 96 91 89 87 88 88 82 79 60 43 26 32 24 28 5 5 3 358 351 342 336 328 322 319 318 313 318 318 312 313 303 306 304 305
161 157 154 146 139 131 121 115 107 99 94 91 88 85 81 77 68 50 38 21 13 16 13 1 354 351 345 338 333 329 316 319 317 310 313 307 304 307 302 301 304 303 306
167 167 160 151 142 136 127 123 115 108 100 94 87 79 71 65 59 46 27 20 12 7 357 351 342 338 333 329 326 317 311 310 314 302 307 300 299 301 303 300 306 304 302
171 170 161 156 147 141 136 128 123 113 103 96 89 77 71 63 54 41 27 11 6 351 349 338 332 329 325 324 321 315 310 314 308 307 302 299 303 298 302 296 296 297 302
171 168 167 159 153 142 135 134 129 121 112 99 87 79 69 55 42 34 18 2 350 350 337 333 329 325 323 322 319 312 311 309 305 303 304 301 300 302 296 295 297 297 293
174 172 170 159 151 148 149 139 134 134 124 109 100 84 65 46 34 21 358 352 338 343 331 331 325 323 321 317 316 312 308 308 306 303 301 302 302 300 304 303 299 292 294
178 173 168 162 164 163 155 153 148 143 129 117 105 83 63 32 17 3 350 342 338 334 331 324 320 316 312 314 312 310 305 312 307 305 304 302 306 303 304 301 302 304 301
175 174 171 174 175 169 166 159 158 147 139 133 113 85 50 21 359 352 341 338 331 327 323 318 312 310 311 309 310 305 317 311 307 306 305 306 305 306 303 306 307 296 294
177 177 177 181 179 174 170 166 159 155 144 132 109 65 33 1 347 336 330 327 324 320 317 311 309 306 307 311 305 323 313 309 308 307 305 301 305 305 312 299 296 299 306
182 184 182 184 179 176 170 167 159 157 147 136 97 49 0 341 327 326 324 323 320 314 310 308 303 305 310 303 325 314 314 311 309 304 300 303 305 303 299 303 306 305 296
182 187 188 186 181 177 174 166 163 153 150 126 92 22 328 326 327 327 322 320 318 311 307 301 302 303 304 313 315 317 311 311 306 300 306 306 303 304 309 312 305 301 317
186 187 188 187 177 173 172 171 160 145 140 127 86 336 325 323 329 324 321 317 310 306 303 304 309 309 312 314 317 318 314 304 301 304 309 307 310 315 313 300 300 315 306
155 161 167 164 156 154 160 145 142 144 136 131 335 322 319 328 327 322 314 312 311 309 310 308 311 312 309 315 318 317 307 305 303 308 311 311 314 309 304 311 321 310 302
118 133 141 145 144 148 145 148 145 135 139 97 335 318 328 328 320 316 315 310 311 310 310 310 311 308 311 315 316 317 308 308 309 314 315 309 306 304 321 323 315 312 310
104 118 124 130 144 144 149 150 142 135 118 94 324 316 325 313 311 312 311 312 312 310 312 307 307 310 311 315 314 318 309 307 310 309 303 306 309 324 324 319 317 313 312
113 118 129 137 134 140 149 143 126 132 112 288 300 314 312 310 309 309 311 315 313 311 306 308 312 313 309 310 319 315 311 310 314 311 311 313 320 320 321 322 319 308 318
123 125 128 126 133 140 142 137 143 122 165 307 319 316 311 310 309 311 312 314 309 307 310 312 310 309 315 319 314 316 320 319 319 314 315 317 318 322 322 326 317 320 326
131 139 137 134 138 142 144 143 130 144 8 331 312 308 309 311 320 318 312 310 312 313 312 311 314 316 324 314 316 323 319 322 320 317 316 319 321 321 329 320 323 326 315
144 147 146 152 151 139 139 128 112 63 334 303 305 310 314 320 315 312 307 308 310 309 310 315 315 317 314 316 319 316 317 319 320 316 313 319 323 327 320 321 318 314 313
148 158 164 163 148 158 149 119 106 326 298 306 312 317 319 319 311 308 308 306 301 306 305 304 309 313 313 315 317 321 323 321 319 325 321 323 326 320 320 319 316 316 314
153 160 152 149 150 155 144 146 188 259 297 312 320 321 315 311 307 310 307 302 305 308 307 303 301 304 306 311 317 322 321 323 326 328 327 322 319 320 320 319 318 317 318